Location: Mannheim
(49.4880°N, 8.4650°E)
Time: 22:27:12
(UTC+02:00)

ISS - Pass Details

Date: 25 May 2023
Orbit: 412 x 419 km, 51.6° (Epoch: 28 May)

Event Time Altitude Azimuth Distance (km) Brightness Sun altitude
Rises 23:34:52 0° 286° (WNW) 2,358 0.7 -15.5°
Reaches altitude 10° 23:37:13 10° 272° (W) 1,493 -0.6 -15.7°
Maximum altitude 23:39:56 23° 217° (SW) 934 -2.3 -15.8°
Enters shadow 23:40:10 23° 211° (SSW) 939 -2.3 -15.9°
